Погода в Ульяновке

Украина / Сумская область     50°58′26″N   34°17′41″E
темп.,
°C
ветер,
м/с
пор.,
м/с
влажн.,
%
обл.,
%
осадки,
мм/ч
давл.,
гПа
погр.,
м
24 мая, вт
вт2400:00+7сз22815 0.0 101014
03:00+5сз22845 0.0 101122
06:00+6сз34835 0.0 101187
09:00+12сз35590 0.0 1011494
12:00+15сз555037 0.0 10111691
15:00+14зсз3763100 0.0 1012357
18:00+14ссз566655 0.3 10121235
21:00+9сз337220 0.3 101433
25 мая, ср
ср2500:00+7зсз34705 0.0 101541
03:00+6зсз35855 0.0 101684
06:00+7зсз37915 0.0 1016167
09:00+14сз46690 0.0 1017518
12:00+18сз585160 0.0 10172185
15:00+19сз474682 0.0 10172614
18:00+17зсз366681 0.4 1017728
21:00+12зюз33806 0.5 101720
26 мая, чт
чт2600:00+11юз3479100 0.0 101757
03:00+11ююз4773100 0.0 1017108
06:00+10ююз41277100 0.0 1015238
09:00+11ююв51185100 0.4 1013270
12:00+11ююз81595100 3.6 1011790
15:00+12юз71397100 6.9 1011697
18:00+16зсз612780 0.4 10111355
21:00+12зюз49905 0.5 1012167
27 мая, пт
пт2700:00+11зюз513935 0.0 1012275
03:00+11зюз6168865 0.0 1011397
06:00+11зюз6148899 0.0 1011440
09:00+14з61280100 0.0 1012905
12:00+16з8116532 0.3 10121576
15:00+18зсз81153100 0.3 10121983
18:00+18зюз6106369 0.0 10111572
21:00+13ююз4118113 0.0 1010242
28 мая, сб
сб2800:00+14юз71679100 0.0 1008500
03:00+13юз61495100 5.1 1006671
06:00+10з41194100 2.5 1008654
09:00+12з6985100 2.8 1008980
12:00+14зюз7106954 0.3 10091421
15:00+16з912565 0.4 10092214
18:00+15з6116160 0.1 10101534
21:00+9з33808 0.1 101228